[[{"header":{"parameterUnit":"m.s-1","parameterCategory":1,"la1":30.2991,"la2":30.254,"lo1":-89.0895,"lo2":-89.0444,"dy":0.0017,"dx":0.0017,"nx":28,"ny":28,"refTime":"2025-06-03T09:00:00:Z","depth":0,"parameterNumber":2,"parameterNumberName":"U-component_of_WINDS"},"data":[0,0,0,0,0,0,0,0,0,0,0,0,0,0,0,0,0,0,0,0,0,0,0,0,0,0,0,0,0,0,0,0,0,0,0,0,0,0,0,0,0,0,0,0,0,0,0,0,0,0,0,0,0,0,0,0,0,0,-4.2236,-4.2236,0,-4.2207,-4.2206,-4.2206,-4.2084,-4.2081,-4.2079,-4.2076,-4.205,-4.2052,-4.2054,0,0,0,0,0,0,0,0,0,0,0,0,0,-4.2192,-4.2193,-4.2236,-4.2236,-4.2235,-4.2207,-4.2206,-4.2206,-4.2085,-4.2081,-4.2078,-4.2075,-4.2049,-4.2051,-4.2054,0,0,0,0,0,0,0,0,0,0,0,0,0,-4.2192,-4.2194,-4.2236,-4.2171,-4.2165,-4.2207,-4.2206,-4.2206,-4.2085,-4.2081,-4.2077,-4.2073,-4.2048,-4.2051,-4.2054,-4.2157,0,0,-4.2063,-4.2064,0,0,0,0,0,0,0,0,-4.2192,-4.2194,-4.2181,-4.2176,-4.2169,-4.2145,-4.2181,-4.219,-4.2087,-4.2116,-4.2076,-4.2071,-4.2085,-4.2085,-4.2089,-4.2156,-4.2155,-4.2063,-4.2065,-4.2066,-4.2067,0,0,0,0,0,0,0,-4.2192,-4.2194,-4.2224,-4.2181,-4.2174,-4.2145,-4.214,-4.2182,-4.2125,-4.2113,-4.2104,-4.2102,-4.2081,-4.2086,-4.2087,-4.2154,-4.2063,-4.2066,-4.2068,-4.2069,-4.2307,-4.2312,0,0,0,0,0,0,-4.2201,-4.2195,-4.2225,-4.2224,-4.217,-4.2149,-4.2144,-4.2157,-4.2124,-4.2115,-4.2106,-4.2096,-4.2083,-4.2084,-4.2086,-4.2206,-4.2066,-4.2069,-4.2071,-4.2303,-4.2308,-4.2313,0,0,0,0,0,0,-4.22,-4.2205,-4.2227,-4.2207,-4.2207,-4.2155,-4.217,-4.2159,-4.2163,-4.2118,-4.2108,-4.2121,-4.208,-4.2082,-4.214,-4.2204,-4.207,-4.2073,-4.2297,-4.2305,-4.2311,-4.2448,0,0,0,0,0,0,-4.2199,-4.2205,-4.2243,-4.2209,-4.2209,-4.2281,-4.2174,-4.2161,-4.2168,-4.2156,-4.213,-4.2122,-4.2077,-4.2137,-4.2144,-4.2205,-4.2075,-4.2292,-4.2301,-4.2309,-4.2437,-4.2458,-4.2476,0,0,0,0,0,-4.2198,-4.2282,-4.2245,-4.2249,-4.2254,-4.2285,-4.2285,-4.223,-4.2174,-4.2212,-4.2183,-4.2123,-4.2195,-4.2144,-4.215,-4.2214,-4.2287,-4.2298,-4.2308,-4.2429,-4.2454,-4.2476,0,0,0,0,0,0,-4.2326,-4.2277,-4.2235,-4.231,-4.2303,-4.2264,-4.231,-4.2259,-4.2268,-4.2256,-4.2189,-4.2184,-4.2254,-4.2239,-4.2183,-4.2313,-4.2231,-4.2243,-4.2321,-4.2345,-4.2364,-4.2367,-4.2078,0,0,0,0,0,-4.2363,-4.239,-4.2346,-4.2417,-4.2415,-4.2364,-4.2375,-4.2333,-4.2323,-4.232,-4.2295,-4.2289,-4.2311,-4.2326,-4.2343,-4.2434,-4.2428,-4.2481,-4.25,-4.2517,-4.2529,-4.2579,-4.2603,-4.2347,-4.2347,-4.2347,0,0,-4.244,-4.2416,-4.2438,-4.2442,-4.2431,-4.2463,-4.2362,-4.2399,-4.2423,-4.2326,-4.238,-4.2363,-4.2351,-4.2427,-4.2459,-4.2417,-4.2598,-4.253,-4.2543,-4.2547,-4.2592,-4.2616,-4.2638,-4.2354,-4.2353,-4.2352,0,0,-4.2596,-4.258,-4.2638,-4.263,-4.2614,-4.258,-4.2594,-4.2564,-4.2548,-4.2601,-4.253,-4.2558,-4.2595,-4.2591,-4.2594,-4.2751,-4.2697,-4.2758,-4.2861,-4.2911,-4.2931,-4.2949,-4.3008,-4.3029,-4.277,-4.277,-4.277,0,-4.2694,-4.2738,-4.2675,-4.2718,-4.2723,-4.2635,-4.2696,-4.2691,-4.2683,-4.2689,-4.2641,-4.2688,-4.2674,-4.275,-4.2788,-4.2792,-4.2809,-4.2762,-4.2933,-4.295,-4.2965,-4.3021,-4.3043,-4.2778,-4.2777,-4.2776,-4.2775,0,-4.286,-4.2892,-4.2941,-4.2935,-4.2946,-4.2997,-4.2944,-4.2963,-4.292,-4.2892,-4.2949,-4.2929,-4.2942,-4.2956,-4.2915,-4.3027,-4.3001,-4.2944,-4.2861,-4.2999,-4.305,-4.3071,-4.2789,-4.2786,-4.2784,-4.2782,0,0,-4.3098,-4.3057,-4.3076,-4.3074,-4.3051,-4.3075,-4.3123,-4.3135,-4.3153,-4.3151,-4.3192,-4.3226,-4.3174,-4.3177,-4.3135,-4.3178,-4.3308,-4.3115,-4.3114,-4.3155,-4.3433,-4.3479,-4.3504,-4.327,-4.3274,-4.3277,-4.3435,0,-4.325,-4.3329,-4.3275,-4.3364,-4.3394,-4.3311,-4.3354,-4.3346,-4.3321,-4.3344,-4.3316,-4.3343,-4.3269,-4.3272,-4.331,-4.3284,-4.3363,-4.3271,-4.3311,-4.3313,-4.3319,-4.353,-4.3578,-4.3729,-4.3454,-4.3458,-4.346,0,-4.3437,-4.3443,-4.3536,-4.3508,-4.3519,-4.3558,-4.3566,-4.3588,-4.3578,-4.3556,-4.3561,-4.3509,-4.3556,-4.3473,-4.3539,-4.3478,-4.3491,-4.3481,-4.3485,-4.3489,-4.3397,-4.3544,-4.3775,-4.3799,-4.3491,-4.3488,-4.3486,0,-4.3606,-4.3636,-4.3696,-4.3695,-4.3665,-4.3695,-4.3684,-4.3669,-4.368,-4.3687,-4.3694,-4.3707,-4.3715,-4.3727,-4.368,-4.3623,-4.3755,-4.3666,-4.3741,-4.3743,-4.3775,-4.3774,-4.4015,-4.3778,-4.3778,-4.3777,-4.3777,0,-4.3783,-4.3843,-4.3771,-4.3809,-4.3875,-4.3812,-4.388,-4.386,-4.3848,-4.3882,-4.381,-4.3844,-4.3778,-4.3806,-4.377,-4.3833,-4.3836,-4.3822,-4.3812,-4.383,-4.3833,-4.384,-4.383,-4.3783,-4.3782,-4.3781,-4.378,0,-4.3983,-4.3936,-4.3997,-4.3963,-4.3956,-4.4007,-4.3978,-4.4012,-4.3982,-4.4026,-4.4032,-4.3986,-4.4014,-4.3968,-4.3991,-4.3967,-4.4055,-4.4028,-4.4059,-4.4052,-4.4131,-4.4126,-4.4388,-4.4421,-4.416,-4.4163,-4.4165,0,-4.41,-4.4145,-4.4116,-4.4133,-4.4126,-4.4154,-4.4165,-4.4105,-4.412,-4.4113,-4.4149,-4.4172,-4.4187,-4.4237,-4.4207,-4.4225,-4.4199,-4.429,-4.4202,-4.422,-4.4205,-4.4205,-4.421,-4.4309,-4.4312,-4.4315,-4.4317,0,-4.4315,-4.429,-4.4308,-4.432,-4.4335,-4.4341,-4.4342,-4.436,-4.4298,-4.4319,-4.4347,-4.4358,-4.4382,-4.4407,-4.4418,-4.4408,-4.4355,-4.4344,-4.4364,-4.4384,-4.4402,-4.4397,-4.4112,-4.434,-4.4337,-4.4336,-4.4334,-4.4333,-4.448,-4.4517,-4.4503,-4.4526,-4.452,-4.4524,-4.4555,-4.4528,-4.455,-4.4565,-4.4528,-4.4566,-4.4557,-4.4566,-4.4562,-4.4593,-4.4553,-4.458,-4.4587,-4.4596,-4.461,-4.4394,-4.4594,-4.4593,-4.4592,-4.4592,-4.4591,0,-4.4694,-4.4681,-4.4703,-4.4707,-4.4726,-4.467,-4.4669,-4.469,-4.4723,-4.4719,-4.4735,-4.4769,-4.4793,-4.4764,-4.4784,-4.4814,-4.479,-4.4821,-4.482,-4.482,-4.4642,-4.4625,-4.4841,-4.4841,-4.4841,-4.484,-4.484,-4.484,-4.4808,-4.4869,-4.4843,-4.4901,-4.4887,-4.4923,-4.4928,-4.4931,-4.4927,-4.4968,-4.4987,-4.4968,-4.4954,-4.4972,-4.4993,-4.4984,-4.4996,-4.5037,-4.5021,-4.4856,-4.4832,-4.4808,-4.4793,-4.504,-4.504,-4.5196,-4.5197,-4.5198]},{"header":{"parameterUnit":"m.s-1","parameterCategory":1,"la1":30.2991,"la2":30.254,"lo1":-89.0895,"lo2":-89.0444,"dy":0.0017,"dx":0.0017,"nx":28,"ny":28,"refTime":"2025-06-03T09:00:00:Z","depth":0,"parameterNumber":3,"parameterNumberName":"V-component_of_WINDS"},"data":[0,0,0,0,0,0,0,0,0,0,0,0,0,0,0,0,0,0,0,0,0,0,0,0,0,0,0,0,0,0,0,0,0,0,0,0,0,0,0,0,0,0,0,0,0,0,0,0,0,0,0,0,0,0,0,0,0,0,-1.9277,-1.9277,0,-1.9277,-1.9277,-1.9277,-1.925,-1.925,-1.9249,-1.9248,-1.9248,-1.9249,-1.925,0,0,0,0,0,0,0,0,0,0,0,0,0,-1.9253,-1.9253,-1.9277,-1.9277,-1.9277,-1.9277,-1.9277,-1.9277,-1.925,-1.925,-1.9249,-1.9248,-1.9248,-1.9249,-1.925,0,0,0,0,0,0,0,0,0,0,0,0,0,-1.9259,-1.9254,-1.9277,-1.9264,-1.9262,-1.9277,-1.9277,-1.9277,-1.9251,-1.925,-1.9249,-1.9248,-1.9248,-1.9249,-1.925,-1.9277,0,0,-1.9253,-1.9253,0,0,0,0,0,0,0,0,-1.9259,-1.926,-1.9266,-1.9265,-1.9263,-1.9263,-1.9268,-1.9277,-1.9251,-1.9255,-1.9248,-1.9247,-1.9254,-1.9254,-1.9257,-1.9277,-1.9277,-1.9253,-1.9254,-1.9254,-1.9254,0,0,0,0,0,0,0,-1.9258,-1.926,-1.9277,-1.9266,-1.9264,-1.9257,-1.9257,-1.927,-1.926,-1.9255,-1.9253,-1.9253,-1.9253,-1.9256,-1.9257,-1.9277,-1.9253,-1.9254,-1.9254,-1.9255,-1.9319,-1.932,0,0,0,0,0,0,-1.926,-1.926,-1.9277,-1.9277,-1.9258,-1.9259,-1.9258,-1.9264,-1.926,-1.9259,-1.9254,-1.9252,-1.9255,-1.9255,-1.9256,-1.9288,-1.9254,-1.9255,-1.9255,-1.9318,-1.9319,-1.932,0,0,0,0,0,0,-1.9259,-1.9262,-1.9277,-1.9268,-1.9269,-1.926,-1.9267,-1.9264,-1.9267,-1.926,-1.9258,-1.9259,-1.9254,-1.9255,-1.9272,-1.9287,-1.9255,-1.9256,-1.9316,-1.9318,-1.932,-1.9351,0,0,0,0,0,0,-1.9259,-1.9262,-1.9272,-1.9268,-1.927,-1.9293,-1.9267,-1.9265,-1.9269,-1.9266,-1.9264,-1.9262,-1.9253,-1.9271,-1.9273,-1.9288,-1.9257,-1.9315,-1.9317,-1.9319,-1.9348,-1.9353,-1.9357,0,0,0,0,0,-1.9258,-1.9281,-1.9273,-1.9275,-1.9283,-1.9294,-1.9294,-1.9284,-1.927,-1.928,-1.9276,-1.9262,-1.9285,-1.9273,-1.9275,-1.9291,-1.9314,-1.9317,-1.9319,-1.9346,-1.9352,-1.9357,0,0,0,0,0,0,-1.9287,-1.928,-1.9271,-1.9293,-1.9294,-1.9289,-1.9302,-1.929,-1.9295,-1.9292,-1.9279,-1.9278,-1.9297,-1.9296,-1.9282,-1.9316,-1.9297,-1.93,-1.9317,-1.9323,-1.9327,-1.9327,-1.9258,0,0,0,0,0,-1.9296,-1.9306,-1.9299,-1.9319,-1.932,-1.9311,-1.9315,-1.9307,-1.9307,-1.9307,-1.9304,-1.9305,-1.9312,-1.9317,-1.9323,-1.9348,-1.9347,-1.9359,-1.9364,-1.9368,-1.9371,-1.9383,-1.9389,-1.9328,-1.9328,-1.9328,0,0,-1.9315,-1.9312,-1.9319,-1.9325,-1.9325,-1.9335,-1.9311,-1.9323,-1.933,-1.9309,-1.9325,-1.9322,-1.9322,-1.9343,-1.9352,-1.9342,-1.9387,-1.9371,-1.9374,-1.9375,-1.9386,-1.9392,-1.9397,-1.933,-1.933,-1.933,0,0,-1.9354,-1.9353,-1.937,-1.937,-1.9369,-1.9363,-1.9367,-1.9363,-1.9361,-1.9376,-1.936,-1.9368,-1.9381,-1.9382,-1.9384,-1.9422,-1.941,-1.9425,-1.9449,-1.9461,-1.9466,-1.947,-1.9484,-1.9489,-1.9428,-1.9428,-1.9428,0,-1.9377,-1.9392,-1.938,-1.9392,-1.9395,-1.9376,-1.9392,-1.9393,-1.9395,-1.9397,-1.9386,-1.9402,-1.94,-1.9421,-1.943,-1.9432,-1.9436,-1.9425,-1.9466,-1.947,-1.9474,-1.9487,-1.9492,-1.943,-1.9429,-1.9429,-1.9429,0,-1.942,-1.9431,-1.9444,-1.9446,-1.945,-1.9465,-1.9455,-1.946,-1.9451,-1.9446,-1.9462,-1.9459,-1.9465,-1.9469,-1.946,-1.9488,-1.9482,-1.9469,-1.9449,-1.9482,-1.9494,-1.9499,-1.9432,-1.9431,-1.9431,-1.943,0,0,-1.9479,-1.9473,-1.9478,-1.9479,-1.9477,-1.9484,-1.9498,-1.9503,-1.9508,-1.951,-1.952,-1.9531,-1.9519,-1.9521,-1.9513,-1.9523,-1.9554,-1.9509,-1.9509,-1.9517,-1.9584,-1.9594,-1.96,-1.9545,-1.9546,-1.9547,-1.9584,0,-1.9517,-1.954,-1.9528,-1.9552,-1.9562,-1.9543,-1.9555,-1.9554,-1.955,-1.9556,-1.9551,-1.9559,-1.9542,-1.9544,-1.9553,-1.9548,-1.9567,-1.9545,-1.9555,-1.9556,-1.9556,-1.9606,-1.9617,-1.9652,-1.9589,-1.9589,-1.959,0,-1.9565,-1.9568,-1.9593,-1.9588,-1.9592,-1.9602,-1.9606,-1.9613,-1.9612,-1.9608,-1.961,-1.9598,-1.9611,-1.9591,-1.9608,-1.9594,-1.9597,-1.9595,-1.9596,-1.9597,-1.9575,-1.9609,-1.9663,-1.9668,-1.9597,-1.9597,-1.9596,0,-1.9605,-1.9615,-1.9632,-1.9632,-1.9628,-1.9636,-1.9634,-1.9632,-1.9636,-1.9639,-1.9641,-1.9645,-1.9648,-1.9651,-1.9641,-1.9628,-1.966,-1.9639,-1.9656,-1.9657,-1.9664,-1.9664,-1.972,-1.9666,-1.9666,-1.9666,-1.9666,0,-1.9649,-1.9665,-1.9649,-1.9659,-1.9677,-1.9663,-1.9681,-1.9677,-1.9675,-1.9684,-1.9668,-1.9677,-1.9663,-1.967,-1.9662,-1.9677,-1.9678,-1.9675,-1.9673,-1.9677,-1.9677,-1.9679,-1.9677,-1.9667,-1.9667,-1.9667,-1.9667,0,-1.9697,-1.9687,-1.9703,-1.9697,-1.9696,-1.9709,-1.9704,-1.9713,-1.9706,-1.9718,-1.9719,-1.971,-1.9717,-1.9707,-1.9714,-1.9708,-1.9729,-1.9723,-1.973,-1.9728,-1.9746,-1.9745,-1.9806,-1.9813,-1.9754,-1.9755,-1.9755,0,-1.9725,-1.9737,-1.9732,-1.9737,-1.9736,-1.9744,-1.9747,-1.9734,-1.9738,-1.9738,-1.9747,-1.9753,-1.9757,-1.977,-1.9764,-1.9768,-1.9763,-1.9784,-1.9763,-1.9767,-1.9763,-1.9763,-1.9764,-1.9788,-1.9789,-1.9789,-1.979,0,-1.9778,-1.9772,-1.9778,-1.9781,-1.9786,-1.9788,-1.9789,-1.9794,-1.978,-1.9786,-1.9793,-1.9796,-1.9803,-1.9809,-1.9812,-1.981,-1.9798,-1.9796,-1.98,-1.9805,-1.9808,-1.9806,-1.9741,-1.9795,-1.9794,-1.9794,-1.9794,-1.9793,-1.9817,-1.9826,-1.9824,-1.983,-1.983,-1.9831,-1.9839,-1.9833,-1.9839,-1.9843,-1.9835,-1.9845,-1.9843,-1.9846,-1.9845,-1.9852,-1.9843,-1.985,-1.9851,-1.9853,-1.9856,-1.9806,-1.9853,-1.9853,-1.9853,-1.9852,-1.9852,0,-1.9868,-1.9866,-1.9872,-1.9874,-1.9879,-1.9866,-1.9866,-1.9871,-1.988,-1.9879,-1.9883,-1.9892,-1.9897,-1.9891,-1.9896,-1.9903,-1.9897,-1.9904,-1.9904,-1.9904,-1.9864,-1.9859,-1.9909,-1.9909,-1.9909,-1.9909,-1.9909,-1.9909,-1.9896,-1.9911,-1.9905,-1.9919,-1.9916,-1.9925,-1.9927,-1.9928,-1.9927,-1.9937,-1.9942,-1.9937,-1.9934,-1.9938,-1.9943,-1.9941,-1.9944,-1.9953,-1.9949,-1.9912,-1.9906,-1.9901,-1.9897,-1.9954,-1.9954,-1.9989,-1.9989,-1.9989]}]]